Location: Gleizolles
(44.4833°N, 6.7667°E)
Time: 16:05:08
(UTC+00:00)

Transit 2A - Pass Details

Date: 25 June 2024
Orbit: 591 x 960 km, 66.7° (Epoch: 16 July)

Event Time Altitude Azimuth Distance (km) Brightness Sun altitude
Rises 20:32:19 0° 333° (NNW) 3,484 11.2 -10.3°
Reaches altitude 10° 20:35:33 10° 351° (N) 2,599 9.7 -10.7°
Maximum altitude 20:39:51 19° 35° (NE) 2,054 8.4 -11.2°
Drops below altitude 10° 20:44:16 10° 80° (E) 2,685 8.5 -11.7°
Enters shadow 20:46:49 - 94° (E) 3,383 8.9 -12.0°
